| time (UTC) | temp F | wind direction | speed knots | gust knots | rain 1hr in | rain 24hr in | rain mn in | humidity % | barometer mb |
| 20260505070056 | 57 | 360 | 0.0 | 0.0 | 0.00 | 0.00 | 0.00 | 48 | 1002.0 |
| 20260505064553 | 58 | 360 | 0.0 | 0.0 | 0.00 | 0.00 | 0.00 | 47 | 1002.0 |
| 20260505063105 | 58 | 360 | 0.0 | 0.0 | 0.00 | 0.00 | 0.00 | 48 | 1002.3 |
| 20260505061612 | 59 | 360 | 0.0 | 0.0 | 0.00 | 0.00 | 0.00 | 49 | 1002.2 |
| 20260505060044 | 59 | 360 | 0.0 | 0.0 | 0.00 | 0.00 | 0.00 | 50 | 1002.2 |
| 20260505054541 | 60 | 360 | 0.0 | 0.0 | 0.00 | 0.00 | 0.00 | 49 | 1002.3 |
| 20260505053040 | 62 | 360 | 0.0 | 0.0 | 0.00 | 0.00 | 0.00 | 49 | 1002.2 |
| 20260505051554 | 63 | 360 | 0.0 | 0.0 | 0.00 | 0.00 | 0.00 | 49 | 1001.7 |
| 20260505041600 | 64 | 360 | 0.0 | 0.0 | 0.00 | 0.00 | 0.00 | 49 | 1000.0 |
| 20260505040053 | 65 | 360 | 0.0 | 0.0 | 0.00 | 0.00 | 0.00 | 47 | 999.9 |
| 20260505034520 | 66 | 360 | 0.0 | 0.0 | 0.00 | 0.00 | 0.00 | 45 | 999.7 |
| 20260505033019 | 66 | 360 | 0.0 | 0.0 | 0.00 | 0.00 | 0.00 | 44 | 999.7 |
| 20260505031516 | 67 | 360 | 0.0 | 0.0 | 0.00 | 0.00 | 0.00 | 43 | 999.9 |
| 20260505030011 | 68 | 360 | 0.0 | 0.0 | 0.00 | 0.00 | 0.00 | 41 | 999.4 |
| 20260505024511 | 68 | 360 | 0.0 | 0.0 | 0.00 | 0.00 | 0.00 | 40 | 999.2 |
| 20260505023006 | 69 | 360 | 0.0 | 0.0 | 0.00 | 0.00 | 0.00 | 38 | 999.1 |
| 20260505021601 | 70 | 360 | 0.0 | 0.0 | 0.00 | 0.00 | 0.00 | 36 | 999.0 |
| 20260505020105 | 71 | 360 | 0.0 | 0.0 | 0.00 | 0.00 | 0.00 | 35 | 998.9 |
| 20260505014555 | 72 | 360 | 0.0 | 0.0 | 0.00 | 0.00 | 0.00 | 33 | 999.0 |
| 20260505013049 | 74 | 360 | 0.0 | 0.0 | 0.00 | 0.00 | 0.00 | 30 | 998.5 |
| 20260505011517 | 76 | 360 | 0.0 | 0.0 | 0.00 | 0.00 | 0.00 | 28 | 998.3 |
| 20260505010011 | 77 | 360 | 0.0 | 0.0 | 0.00 | 0.00 | 0.00 | 27 | 998.2 |
| 20260505004508 | 79 | 360 | 0.0 | 0.0 | 0.00 | 0.00 | 0.00 | 25 | 998.2 |
| 20260505003012 | 80 | 360 | 0.0 | 0.0 | 0.00 | 0.00 | 0.00 | 23 | 998.3 |
| 20260505001501 | 80 | 360 | 0.0 | 0.0 | 0.00 | 0.00 | 0.00 | 23 | 999.0 |
| 20260504234532 | 81 | 360 | 0.0 | 0.0 | 0.00 | 0.00 | 0.00 | 22 | 998.6 |
| 20260504233027 | 81 | 360 | 0.0 | 0.0 | 0.00 | 0.00 | 0.00 | 21 | 998.7 |
| 20260504231523 | 81 | 360 | 0.0 | 0.0 | 0.00 | 0.00 | 0.00 | 21 | 998.7 |
| 20260504230019 | 82 | 360 | 0.0 | 0.0 | 0.00 | 0.00 | 0.00 | 21 | 999.1 |
| 20260504224517 | 82 | 360 | 0.0 | 0.0 | 0.00 | 0.00 | 0.00 | 21 | 999.1 |
| 20260504223016 | 83 | 360 | 0.0 | 0.0 | 0.00 | 0.00 | 0.00 | 21 | 998.9 |
| 20260504221511 | 83 | 360 | 0.0 | 0.0 | 0.00 | 0.00 | 0.00 | 20 | 999.1 |
| 20260504220011 | 83 | 360 | 0.0 | 0.0 | 0.00 | 0.00 | 0.00 | 20 | 999.0 |
| 20260504214508 | 83 | 360 | 0.0 | 0.0 | 0.00 | 0.00 | 0.00 | 20 | 999.4 |
| 20260504213007 | 84 | 360 | 0.0 | 0.0 | 0.00 | 0.00 | 0.00 | 19 | 999.5 |
| 20260504211504 | 85 | 360 | 0.0 | 0.0 | 0.00 | 0.00 | 0.00 | 19 | 999.4 |
| 20260504210003 | 85 | 360 | 0.0 | 0.0 | 0.00 | 0.00 | 0.00 | 19 | 999.6 |
| 20260504204503 | 84 | 360 | 0.0 | 0.0 | 0.00 | 0.00 | 0.00 | 19 | 999.5 |
| 20260504203110 | 84 | 360 | 0.0 | 0.0 | 0.00 | 0.00 | 0.00 | 19 | 999.8 |
| 20260504201557 | 84 | 360 | 0.0 | 0.0 | 0.00 | 0.00 | 0.00 | 19 | 1000.1 |
| 20260504200053 | 86 | 360 | 0.0 | 0.0 | 0.00 | 0.00 | 0.00 | 18 | 1000.4 |
| 20260504194601 | 86 | 360 | 0.0 | 0.0 | 0.00 | 0.00 | 0.00 | 16 | 1000.5 |
| 20260504193051 | 87 | 360 | 0.0 | 0.0 | 0.00 | 0.00 | 0.00 | 16 | 1000.5 |
| 20260504191544 | 87 | 360 | 0.0 | 0.0 | 0.00 | 0.00 | 0.00 | 16 | 1000.7 |
| 20260504184538 | 86 | 360 | 0.0 | 0.0 | 0.00 | 0.00 | 0.00 | 16 | 1001.3 |
| 20260504183036 | 87 | 240 | 0.0 | 0.0 | 0.00 | 0.00 | 0.00 | 21 | 1001.5 |
| 20260504181535 | 87 | 240 | 0.0 | 0.0 | 0.00 | 0.00 | 0.00 | 21 | 1001.7 |
| 20260504180031 | 86 | 240 | 0.0 | 0.0 | 0.00 | 0.00 | 0.00 | 22 | 1001.9 |
| 20260504174526 | 86 | 238 | 0.0 | 0.0 | 0.00 | 0.00 | 0.00 | 24 | 1002.2 |
| 20260504173024 | 85 | 242 | 0.0 | 0.0 | 0.00 | 0.00 | 0.00 | 25 | 1002.5 |
| 20260504171517 | 84 | 242 | 0.0 | 0.0 | 0.00 | 0.00 | 0.00 | 27 | 1002.6 |
| 20260504081508 | 57 | 242 | 0.0 | 0.0 | 0.00 | 0.00 | 0.00 | 41 | 1004.0 |